This demonstration page uses our WeatherBlox Daily Observations layout. Learn more.

Left ArrowRight Arrow

39.51506, -84.39828

Hourly Observations for May 3, 2018

Temp ( °F °C ) Dew Point ( °F °C ) Humidity (%) Winds ( mph kmh ) Pressure ( in mb ) Visibility ( mi km ) Precip ( " mm )
12:15 am 00:15 Partly Cloudy 72 22.1 60 15.7 67 67 SSW 9 15 30.03 1017 10 16 0.00 0.00
12:35 am 00:35 Mostly Cloudy 73 22.5 60 15.7 66 66 S 9 15 30.03 1017 10 16 0.00 0.00
12:55 am 00:55 Mostly Cloudy 71 21.6 60 15.8 70 70 SSW 8 13 30.03 1017 10 16 0.00 0.00
1:15 am 01:15 Mostly Cloudy 71 21.5 60 15.8 70 70 SSW 8 13 30.03 1017 10 16 0.00 0.00
1:35 am 01:35 Cloudy 71 21.9 61 15.9 69 69 SSW 8 13 30.03 1017 10 16 0.00 0.00
1:55 am 01:55 Cloudy 72 22 61 15.9 68 68 SSW 8 13 30.03 1017 10 16 0.00 0.00
2:15 am 02:15 Partly Cloudy 70 21.2 60 15.7 71 71 SSW 8 13 30.03 1017 10 16 0.00 0.00
2:35 am 02:35 Partly Cloudy 71 21.6 60 15.4 68 68 S 9 15 30.03 1017 10 16 0.00 0.00
2:55 am 02:55 Mostly Cloudy 70 20.9 60 15.5 71 71 SSW 7 11 30.03 1017 10 16 0.00 0.00
3:15 am 03:15 Mostly Cloudy 69 20.5 60 15.7 74 74 SSW 7 11 30.03 1017 10 16 0.00 0.00
3:35 am 03:35 Mostly Cloudy 68 20.2 60 15.5 75 75 SW 7 11 30.03 1017 10 16 0.00 0.00
3:55 am 03:55 Mostly Cloudy 68 19.8 60 15.5 76 76 SSW 6 9 30.03 1017 10 16 0.00 0.00
4:15 am 04:15 Cloudy 68 20.2 60 15.5 75 75 SSW 5 7 30.03 1017 10 16 0.00 0.00
4:35 am 04:35 Mostly Cloudy 68 20 60 15.6 76 76 SSW 7 11 30.03 1017 10 16 0.00 0.00
4:55 am 04:55 Mostly Cloudy 68 20.1 60 15.5 75 75 SSW 7 11 30.03 1017 10 16 0.00 0.00
5:15 am 05:15 Partly Cloudy 69 20.8 59 15.2 70 70 S 8 13 30.03 1017 10 16 0.00 0.00
5:35 am 05:35 Clear 68 20.2 59 15.1 73 73 SSW 7 11 30.03 1017 10 16 0.00 0.00
5:55 am 05:55 Partly Cloudy 69 20.4 59 15 71 71 S 8 13 30.00 1016 10 16 0.00 0.00
6:15 am 06:15 Partly Cloudy 69 20.7 59 15 70 70 SSW 7 11 30.00 1016 10 16 0.00 0.00
6:35 am 06:35 Mostly Cloudy 70 21.1 59 15 68 68 S 8 13 30.00 1016 10 16 0.00 0.00
6:55 am 06:55 Mostly Cloudy 70 21.2 59 15 68 68 S 9 15 30.00 1016 10 16 0.00 0.00
7:15 am 07:15 Partly Cloudy 70 21.1 59 15.1 69 69 S 9 15 30.00 1016 10 16 0.00 0.00
7:35 am 07:35 Sunny 70 21.3 59 15.1 68 68 SSW 9 15 30.03 1017 10 16 0.00 0.00
7:55 am 07:55 Sunny 71 21.8 59 15.1 66 66 SSW 12 19 30.03 1017 10 16 0.00 0.00
8:15 am 08:15 Partly Cloudy 72 22.2 59 15 64 64 SSW 15 24 30.03 1017 10 16 0.00 0.00
8:35 am 08:35 Sunny 72 22.4 59 14.9 63 63 SSW 18 30 30.00 1016 10 16 0.00 0.00
8:55 am 08:55 Sunny 73 23 59 15 61 61 SSW 17 28 30.00 1016 10 16 0.00 0.00
9:15 am 09:15 Sunny 74 23.6 59 14.9 58 58 SSW 23 37 30.00 1016 10 16 0.00 0.00
9:35 am 09:35 Sunny 75 23.9 60 15.3 59 59 SSW 18 30 30.03 1017 10 16 0.00 0.00
9:55 am 09:55 Partly Cloudy 75 23.8 59 15.2 59 59 SSW 21 33 30.03 1017 10 16 0.00 0.00
10:15 am 10:15 Sunny 75 24 60 15.5 59 59 SSW 14 22 30.03 1017 10 16 0.00 0.00
10:35 am 10:35 Sunny 76 24.6 60 15.6 57 57 SSW 22 35 30.03 1017 10 16 0.00 0.00
10:55 am 10:55 Partly Cloudy 77 24.8 60 15.8 57 57 SSW 18 30 30.03 1017 10 16 0.00 0.00
11:15 am 11:15 Mostly Cloudy 77 24.9 61 16 58 58 SSW 17 28 30.03 1017 10 16 0.00 0.00
11:35 am 11:35 Cloudy with Rain 74 23.5 61 16.3 64 64 SW 25 41 30.06 1018 7 11 0.00 0.00
11:55 am 11:55 Cloudy with Light Rain 70 21.2 63 17.3 79 79 SW 17 28 30.09 1019 10 16 0.00 0.00
12:15 pm 12:15 Cloudy with Light Rain 68 20.1 64 17.8 87 87 SW 15 24 30.06 1018 10 16 0.02 0.51
12:35 pm 12:35 Sunny 69 20.4 65 18.1 87 87 SW 13 20 30.06 1018 10 16 0.02 0.51
12:55 pm 12:55 Sunny 72 22.1 65 18.6 81 81 SSW 10 17 30.03 1017 10 16 0.02 0.51
1:15 pm 13:15 Partly Cloudy 73 22.7 64 18 75 75 SSW 15 24 30.03 1017 10 16 0.00 0.00
1:35 pm 13:35 Partly Cloudy 74 23.4 65 18.1 72 72 SSW 16 26 30.03 1017 10 16 0.00 0.00
1:55 pm 13:55 Sunny 75 23.7 64 18 71 71 SW 14 22 30.00 1016 10 16 0.00 0.00
2:15 pm 14:15 Sunny 77 25.2 65 18.2 65 65 SSW 14 22 30.00 1016 10 16 0.00 0.00
2:35 pm 14:35 Partly Cloudy 78 25.3 63 17.3 61 61 SW 16 26 30.00 1016 10 16 0.00 0.00
2:55 pm 14:55 Mostly Cloudy 78 25.5 62 16.8 59 59 SW 22 35 30.03 1017 10 16 0.00 0.00
3:15 pm 15:15 Mostly Cloudy 79 25.9 63 17.1 58 58 WSW 21 33 30.03 1017 10 16 0.00 0.00
3:35 pm 15:35 Cloudy 77 25.1 63 17 61 61 SW 20 31 30.03 1017 10 16 0.00 0.00
3:55 pm 15:55 Mostly Cloudy 78 25.5 62 16.5 58 58 SW 18 30 30.03 1017 10 16 0.00 0.00
4:15 pm 16:15 Partly Cloudy 79 26.1 63 17 57 57 SW 18 30 30.03 1017 10 16 0.00 0.00
4:35 pm 16:35 Mostly Cloudy 79 26.2 62 16.8 56 56 SW 20 31 30.03 1017 10 16 0.00 0.00
4:55 pm 16:55 Mostly Cloudy 78 25.5 62 16.9 59 59 SSW 16 26 30.03 1017 10 16 0.00 0.00
5:15 pm 17:15 Sunny 79 26.2 63 17.2 58 58 SW 17 28 30.03 1017 10 16 0.00 0.00
5:35 pm 17:35 Mostly Cloudy 79 26.1 63 17.2 58 58 SW 18 30 30.03 1017 10 16 0.00 0.00
5:55 pm 17:55 Partly Cloudy 79 26.1 63 17.1 58 58 WSW 13 20 30.03 1017 10 16 0.00 0.00
6:15 pm 18:15 Mostly Cloudy 78 25.4 63 17 60 60 WSW 15 24 30.03 1017 10 16 0.00 0.00
6:35 pm 18:35 Cloudy 77 24.9 63 17 62 62 SW 14 22 30.03 1017 10 16 0.00 0.00
6:55 pm 18:55 Cloudy 76 24.4 62 16.8 63 63 SW 14 22 30.03 1017 10 16 0.00 0.00
7:15 pm 19:15 Cloudy with Light Rain 74 23.5 63 17.4 69 69 SW 13 20 30.03 1017 10 16 0.00 0.00
7:35 pm 19:35 Cloudy with Light Rain 73 22.5 64 17.8 75 75 SW 9 15 30.03 1017 10 16 0.00 0.00
7:55 pm 19:55 Cloudy 72 22.2 64 17.7 76 76 SW 9 15 30.03 1017 10 16 0.00 0.00
8:15 pm 20:15 Cloudy 71 21.9 64 17.5 76 76 SSW 13 20 30.03 1017 10 16 0.00 0.00
8:35 pm 20:35 Cloudy 72 22 63 17.4 75 75 SSW 14 22 30.03 1017 10 16 0.00 0.00
8:55 pm 20:55 Cloudy 71 21.7 63 17.4 77 77 S 9 15 30.03 1017 10 16 0.00 0.00
9:15 pm 21:15 Cloudy 71 21.4 64 17.5 79 79 SSW 7 11 30.03 1017 10 16 0.00 0.00
9:35 pm 21:35 Cloudy 70 21.2 64 17.5 80 80 SSW 7 11 30.03 1017 10 16 0.00 0.00
9:55 pm 21:55 Partly Cloudy with Light Rain 70 20.9 64 17.5 81 81 S 6 9 30.03 1017 10 16 0.00 0.00
10:15 pm 22:15 Clear 70 21.2 63 17.3 79 79 S 7 11 30.00 1016 10 16 0.00 0.00
10:35 pm 22:35 Partly Cloudy 70 21 63 17.3 80 80 S 7 11 30.00 1016 10 16 0.00 0.00
10:55 pm 22:55 Partly Cloudy 70 20.9 63 17.1 79 79 S 7 11 30.00 1016 10 16 0.00 0.00
11:15 pm 23:15 Cloudy 70 21.3 63 17 77 77 S 9 15 29.97 1015 10 16 0.00 0.00
11:35 pm 23:35 Clear 71 21.4 62 16.6 74 74 S 10 17 29.97 1015 10 16 0.00 0.00
11:55 pm 23:55 Clear 70 21.1 62 16.4 75 75 S 9 15 29.94 1014 10 16 0.00 0.00

Powered by AerisWeather